This is the latest recevied weather packets stored in our database for station/object N0MR. If no packets are shown the sender has not sent any weather packets the latest 10 day(s).
| Time | Temp. | Humidity | Pressure | Rain* | Wind** | Luminosity | Snow |
|---|---|---|---|---|---|---|---|
| 1788218140 | 25.56° C | 57% | 1009.4 hPa | 0 mm | - | - | - |
| 1788217531 | 25.56° C | 57% | 1009.4 hPa | 0 mm | - | - | - |
| 1788216930 | 26.11° C | 58% | 1009.1 hPa | 0 mm | - | - | - |
| 1788216330 | 26.11° C | 58% | 1009.1 hPa | 0 mm | - | - | - |
| 1788215730 | 26.67° C | 57% | 1009.2 hPa | 0 mm | - | - | - |
| 1788215130 | 26.67° C | 57% | 1009.2 hPa | 0 mm | - | - | - |
| 1788214532 | 26.67° C | 57% | 1009.2 hPa | 0 mm | - | - | - |
| 1788213931 | 27.22° C | 59% | 1009.4 hPa | 0 mm | - | - | - |
| 1788213331 | 27.22° C | 59% | 1009.4 hPa | 0 mm | - | - | - |
| 1788212732 | 27.22° C | 61% | 1009.4 hPa | 0 mm | - | - | - |
| 1788212132 | 27.22° C | 61% | 1009.4 hPa | 0 mm | - | - | - |
| 1788211532 | 27.22° C | 63% | 1009.4 hPa | 0 mm | - | - | - |
| 1788210932 | 27.22° C | 63% | 1009.4 hPa | 0 mm | - | - | - |
| 1788210331 | 26.67° C | 62% | 1009.4 hPa | 0 mm | - | - | - |
| 1788209732 | 26.67° C | 62% | 1009.4 hPa | 0 mm | - | - | - |
| 1788209131 | 26.67° C | 70% | 1009.2 hPa | 0 mm | - | - | - |
| 1788207932 | 26.11° C | 70% | 1009.2 hPa | 0 mm | - | - | - |
| 1788207331 | 26.11° C | 70% | 1009.2 hPa | 0 mm | - | - | - |
| 1788206732 | 25.56° C | 73% | 1009.2 hPa | 0 mm | - | - | - |
| 1788205532 | 25° C | 84% | 1009.1 hPa | 0 mm | - | - | - |
| 1788204932 | 25° C | 84% | 1009.1 hPa | 0 mm | - | - | - |
| 1788204332 | 23.33° C | 87% | 1009.3 hPa | 0 mm | - | - | - |
| 1788203732 | 22.78° C | 91% | 1009.4 hPa | 0 mm | - | - | - |
| 1788203133 | 22.78° C | 91% | 1009.4 hPa | 0 mm | - | - | - |
| 1788202533 | 22.22° C | 92% | 1009.2 hPa | 0 mm | - | - | - |
* Rain latest hour (hover to see other rain measurements)
** Current wind speed in m/s (hover to see current wind gust speed)